This is the latest recevied weather packets stored in our database for station/object OK2JCZ-6. If no packets are shown the sender has not sent any weather packets the latest 10 day(s).
| Time | Temp. | Humidity | Pressure | Rain* | Wind** | Luminosity | Snow |
|---|---|---|---|---|---|---|---|
| 1777035574 | 17.22° C | 31% | 1014.7 hPa | 0 mm | - | - | - |
| 1777035274 | 17.22° C | 29% | 1014.8 hPa | 0 mm | - | - | - |
| 1777034974 | 17.22° C | 31% | 1014.8 hPa | 0 mm | - | - | - |
| 1777033474 | 16.67° C | 33% | 1015.1 hPa | 0 mm | - | - | - |
| 1777033174 | 16.67° C | 33% | 1015.1 hPa | 0 mm | - | - | - |
| 1777032876 | 17.22° C | 34% | 1015 hPa | 0 mm | - | - | - |
| 1777032574 | 17.22° C | 33% | 1015.1 hPa | 0 mm | - | - | - |
| 1777031974 | 16.67° C | 33% | 1015.3 hPa | 0 mm | - | - | - |
| 1777031074 | 17.22° C | 33% | 1015.3 hPa | 0 mm | - | - | - |
| 1777030774 | 17.22° C | 32% | 1015.4 hPa | 0 mm | - | - | - |
| 1777030174 | 16.67° C | 34% | 1015.4 hPa | 0 mm | - | - | - |
| 1777029574 | 16.67° C | 31% | 1015.5 hPa | 0 mm | - | - | - |
| 1777029274 | 16.11° C | 30% | 1015.5 hPa | 0 mm | - | - | - |
| 1777028374 | 16.67° C | 32% | 1015.6 hPa | 0 mm | - | - | - |
| 1777027774 | 16.67° C | 32% | 1015.6 hPa | 0 mm | - | - | - |
| 1777027476 | 16.67° C | 33% | 1015.7 hPa | 0 mm | - | - | - |
| 1777027174 | 16.67° C | 33% | 1015.7 hPa | 0 mm | - | - | - |
| 1777026574 | 16.67° C | 33% | 1015.7 hPa | 0 mm | - | - | - |
| 1777026274 | 16.67° C | 34% | 1015.8 hPa | 0 mm | - | - | - |
| 1777025074 | 17.22° C | 34% | 1016 hPa | 0 mm | - | - | - |
| 1777024774 | 17.22° C | 35% | 1016.1 hPa | 0 mm | - | - | - |
| 1777024475 | 16.67° C | 35% | 1016.2 hPa | 0 mm | - | - | - |
| 1777024175 | 16.67° C | 37% | 1016.2 hPa | 0 mm | - | - | - |
| 1777023573 | 16.67° C | 36% | 1016.2 hPa | 0 mm | - | - | - |
| 1777023274 | 16.67° C | 37% | 1016.2 hPa | 0 mm | - | - | - |
* Rain latest hour (hover to see other rain measurements)
** Current wind speed in m/s (hover to see current wind gust speed)